TimeMDT,TemperatureF,Dew PointF,Humidity,Sea Level PressureIn,VisibilityMPH,Wind Direction,Wind SpeedMPH,Gust SpeedMPH,PrecipitationIn,Events,Conditions,WindDirDegrees,DateUTC
12:12 AM,35.6,32.0,87,30.43,-9999.0,SW,11.5,-,N/A,,Clear,220,2013-05-16 06:12:00
12:32 AM,35.6,32.0,87,30.43,-9999.0,SW,15.0,-,N/A,,Clear,230,2013-05-16 06:32:00
12:52 AM,35.6,32.0,87,30.43,-9999.0,SSW,16.1,-,N/A,,Unknown,210,2013-05-16 06:52:00
1:12 AM,35.6,32.0,87,30.43,-9999.0,SW,15.0,-,N/A,,Unknown,220,2013-05-16 07:12:00
1:32 AM,33.8,32.0,93,30.42,-9999.0,SSW,15.0,-,N/A,,Unknown,210,2013-05-16 07:32:00
1:52 AM,35.6,32.0,87,30.42,-9999.0,SSW,18.4,-,N/A,,Overcast,210,2013-05-16 07:52:00
2:12 AM,35.6,32.0,87,30.41,-9999.0,SW,17.3,-,N/A,,Overcast,220,2013-05-16 08:12:00
2:32 AM,33.8,32.0,93,30.41,-9999.0,SW,16.1,-,N/A,,Mostly Cloudy,230,2013-05-16 08:32:00
2:52 AM,35.6,30.2,81,30.40,-9999.0,WSW,18.4,-,N/A,,Scattered Clouds,240,2013-05-16 08:52:00
3:12 AM,35.6,30.2,81,30.40,-9999.0,WSW,18.4,-,N/A,,Clear,240,2013-05-16 09:12:00
3:32 AM,35.6,30.2,81,30.40,-9999.0,WSW,15.0,-,N/A,,Clear,240,2013-05-16 09:32:00
3:52 AM,33.8,30.2,87,30.40,-9999.0,SW,13.8,-,N/A,,Clear,230,2013-05-16 09:52:00
4:12 AM,33.8,28.4,81,30.40,-9999.0,SW,15.0,-,N/A,,Clear,230,2013-05-16 10:12:00
4:32 AM,33.8,28.4,81,30.40,-9999.0,SW,15.0,-,N/A,,Clear,230,2013-05-16 10:32:00
4:52 AM,33.8,28.4,81,30.40,-9999.0,WSW,16.1,-,N/A,,Clear,240,2013-05-16 10:52:00
5:12 AM,33.8,28.4,81,30.40,-9999.0,SW,15.0,-,N/A,,Clear,230,2013-05-16 11:12:00
5:32 AM,33.8,28.4,81,30.40,-9999.0,SW,17.3,-,N/A,,Clear,230,2013-05-16 11:32:00
5:52 AM,33.8,26.6,75,30.40,-9999.0,SW,16.1,-,N/A,,Clear,230,2013-05-16 11:52:00
6:12 AM,33.8,26.6,75,30.40,-9999.0,WSW,16.1,-,N/A,,Clear,240,2013-05-16 12:12:00
6:32 AM,33.8,26.6,75,30.41,-9999.0,WSW,15.0,-,N/A,,Clear,240,2013-05-16 12:32:00
6:52 AM,35.6,26.6,70,30.41,-9999.0,WSW,15.0,-,N/A,,Clear,240,2013-05-16 12:52:00
7:12 AM,35.6,26.6,70,30.42,-9999.0,WSW,16.1,-,N/A,,Clear,250,2013-05-16 13:12:00
7:32 AM,35.6,26.6,70,30.42,-9999.0,West,16.1,-,N/A,,Clear,260,2013-05-16 13:32:00
7:52 AM,35.6,26.6,70,30.42,-9999.0,West,19.6,-,N/A,,Clear,260,2013-05-16 13:52:00
8:12 AM,35.6,26.6,70,30.43,-9999.0,WSW,18.4,-,N/A,,Clear,250,2013-05-16 14:12:00
8:32 AM,37.4,26.6,65,30.43,-9999.0,WSW,19.6,-,N/A,,Clear,240,2013-05-16 14:32:00
8:52 AM,37.4,24.8,60,30.43,-9999.0,SW,18.4,-,N/A,,Clear,230,2013-05-16 14:52:00
9:12 AM,37.4,26.6,65,30.44,-9999.0,WSW,20.7,27.6,N/A,,Clear,250,2013-05-16 15:12:00
9:32 AM,39.2,24.8,56,30.44,-9999.0,WSW,25.3,28.8,N/A,,Clear,240,2013-05-16 15:32:00
9:52 AM,39.2,26.6,61,30.43,-9999.0,SW,21.9,29.9,N/A,,Clear,230,2013-05-16 15:52:00
10:12 AM,41.0,26.6,57,30.44,-9999.0,West,25.3,31.1,N/A,,Clear,260,2013-05-16 16:12:00
10:32 AM,41.0,28.4,61,30.44,-9999.0,SW,24.2,31.1,N/A,,Clear,220,2013-05-16 16:32:00
10:52 AM,41.0,26.6,57,30.45,-9999.0,West,21.9,32.2,N/A,,Clear,260,2013-05-16 16:52:00
11:12 AM,41.0,26.6,57,30.44,-9999.0,West,29.9,34.5,N/A,,Clear,260,2013-05-16 17:12:00
11:32 AM,42.8,28.4,57,30.44,-9999.0,West,32.2,40.3,N/A,,Clear,270,2013-05-16 17:32:00
11:52 AM,42.8,26.6,53,30.44,-9999.0,West,31.1,41.4,N/A,,Clear,270,2013-05-16 17:52:00
12:12 PM,42.8,23.0,46,30.44,-9999.0,West,33.4,44.9,N/A,,Clear,260,2013-05-16 18:12:00
12:32 PM,44.6,23.0,43,30.43,-9999.0,West,36.8,47.2,N/A,,Clear,270,2013-05-16 18:32:00
1:12 PM,44.6,24.8,46,30.43,-9999.0,West,33.4,40.3,N/A,,Clear,270,2013-05-16 19:12:00
1:32 PM,46.4,26.6,46,30.43,-9999.0,West,21.9,32.2,N/A,,Clear,260,2013-05-16 19:32:00
1:52 PM,48.2,26.6,43,30.43,-9999.0,West,25.3,36.8,N/A,,Clear,270,2013-05-16 19:52:00
2:12 PM,50.0,26.6,40,30.43,-9999.0,WSW,25.3,32.2,N/A,,Scattered Clouds,240,2013-05-16 20:12:00
2:32 PM,50.0,26.6,40,30.43,-9999.0,WSW,16.1,32.2,N/A,,Scattered Clouds,240,2013-05-16 20:32:00
2:52 PM,50.0,23.0,35,30.43,-9999.0,WSW,12.7,24.2,N/A,,Scattered Clouds,250,2013-05-16 20:52:00
3:12 PM,50.0,23.0,35,30.42,-9999.0,West,16.1,34.5,N/A,,Clear,280,2013-05-16 21:12:00
3:32 PM,51.8,23.0,33,30.41,-9999.0,West,26.5,33.4,N/A,,Scattered Clouds,260,2013-05-16 21:32:00
4:12 PM,51.8,21.2,30,30.40,-9999.0,West,19.6,32.2,N/A,,Scattered Clouds,270,2013-05-16 22:12:00
4:32 PM,50.0,21.2,32,30.40,-9999.0,West,19.6,33.4,N/A,,Scattered Clouds,270,2013-05-16 22:32:00
4:52 PM,51.8,23.0,33,30.40,-9999.0,West,20.7,34.5,N/A,,Scattered Clouds,280,2013-05-16 22:52:00
5:12 PM,51.8,23.0,33,30.40,-9999.0,West,32.2,39.1,N/A,,Scattered Clouds,270,2013-05-16 23:12:00
5:32 PM,50.0,21.2,32,30.39,-9999.0,West,31.1,40.3,N/A,,Scattered Clouds,280,2013-05-16 23:32:00
5:52 PM,50.0,21.2,32,30.39,-9999.0,West,25.3,33.4,N/A,,Scattered Clouds,260,2013-05-16 23:52:00
6:12 PM,50.0,23.0,35,30.38,-9999.0,West,28.8,38.0,N/A,,Scattered Clouds,270,2013-05-17 00:12:00
6:32 PM,50.0,21.2,32,30.39,-9999.0,West,28.8,40.3,N/A,,Scattered Clouds,270,2013-05-17 00:32:00
6:52 PM,46.4,21.2,37,30.40,-9999.0,West,23.0,-,N/A,,Clear,270,2013-05-17 00:52:00
7:12 PM,46.4,23.0,40,30.40,-9999.0,West,25.3,28.8,N/A,,Mostly Cloudy,270,2013-05-17 01:12:00
7:32 PM,46.4,21.2,37,30.41,-9999.0,West,23.0,32.2,N/A,,Scattered Clouds,270,2013-05-17 01:32:00
7:52 PM,44.6,23.0,43,30.42,-9999.0,West,21.9,33.4,N/A,,Mostly Cloudy,270,2013-05-17 01:52:00
8:12 PM,44.6,23.0,43,30.42,-9999.0,West,23.0,-,N/A,,Overcast,270,2013-05-17 02:12:00
8:32 PM,44.6,23.0,43,30.42,-9999.0,West,19.6,-,N/A,,Overcast,270,2013-05-17 02:32:00
8:52 PM,44.6,21.2,39,30.42,-9999.0,West,18.4,24.2,N/A,,Overcast,260,2013-05-17 02:52:00
9:12 PM,42.8,23.0,46,30.43,-9999.0,WSW,11.5,-,N/A,,Overcast,240,2013-05-17 03:12:00
9:32 PM,42.8,21.2,42,30.44,-9999.0,WSW,11.5,-,N/A,,Overcast,250,2013-05-17 03:32:00
9:52 PM,42.8,23.0,46,30.45,-9999.0,WSW,9.2,-,N/A,,Overcast,250,2013-05-17 03:52:00
10:12 PM,42.8,23.0,46,30.45,-9999.0,West,11.5,-,N/A,,Overcast,270,2013-05-17 04:12:00
10:32 PM,42.8,23.0,46,30.45,-9999.0,West,11.5,-,N/A,,Scattered Clouds,270,2013-05-17 04:32:00
10:52 PM,42.8,23.0,46,30.44,-9999.0,West,10.4,-,N/A,,Scattered Clouds,270,2013-05-17 04:52:00
11:12 PM,41.0,23.0,49,30.44,-9999.0,West,12.7,-,N/A,,Mostly Cloudy,260,2013-05-17 05:12:00
11:32 PM,41.0,21.2,45,30.44,-9999.0,WSW,10.4,-,N/A,,Scattered Clouds,240,2013-05-17 05:32:00
11:52 PM,41.0,23.0,49,30.44,-9999.0,WSW,12.7,-,N/A,,Scattered Clouds,250,2013-05-17 05:52:00